RH
5 4 4 4 4 4 4 4 5 5 5 5 5 5 6 6 7 8 8 9 11 14 17 19 20 19 16 13 12 13 18 35 43
4 4 4 4 4 5 6 7 8 8 8 8 8 8 7 7 7 8 9 10 12 15 17 18 21 23 23 19 16 13 12 13 24
5 4 5 5 5 6 8 8 8 9 9 10 10 10 10 10 9 9 9 10 12 14 17 20 21 23 25 24 22 18 15 13 11
7 5 5 5 6 8 8 9 9 9 10 10 10 11 11 11 12 12 12 13 12 13 15 17 20 22 23 24 23 21 17 15 13
11 7 6 6 6 8 8 9 9 9 10 10 10 11 11 12 12 13 12 14 13 14 15 16 18 20 20 21 20 19 16 14 12
14 9 6 6 7 8 8 8 9 10 10 11 10 11 11 11 13 14 14 14 15 15 15 16 18 19 19 19 18 16 15 14 11
16 11 6 6 7 8 8 8 9 10 11 11 11 11 11 12 13 15 16 17 17 18 18 19 19 18 17 16 15 14 13 13 11
18 12 7 6 7 8 9 8 8 10 11 12 12 11 11 12 13 14 15 17 18 19 18 17 15 14 14 13 13 12 11 10 10
19 13 7 6 7 9 9 8 8 9 11 12 12 12 12 12 12 13 14 15 16 18 16 15 14 14 14 14 13 12 10 9 8
20 15 7 6 8 9 10 8 8 9 10 12 13 13 13 13 13 13 14 14 16 18 18 15 12 11 13 13 13 13 12 11 10
21 18 8 7 8 9 10 9 8 8 9 11 12 13 13 13 14 14 14 14 14 16 20 22 20 14 8 7 7 10 12 12 12
21 19 9 7 9 10 10 10 8 7 8 9 11 12 12 13 13 14 14 14 14 15 15 18 22 25 24 20 16 9 7 8 11
21 20 10 7 9 11 11 10 9 8 7 8 8 10 11 12 13 14 14 15 15 15 15 16 16 18 22 25 26 27 26 18 10
21 20 10 7 10 11 11 9 8 7 7 8 8 9 9 10 12 12 14 14 15 15 15 16 16 16 16 17 18 18 19 22 26
22 20 11 8 10 12 12 8 7 7 8 8 9 9 10 10 11 12 12 13 14 15 16 16 17 17 18 18 18 18 18 18 18
23 20 11 8 11 13 12 7 7 7 8 10 11 12 13 14 14 14 14 14 14 15 16 17 17 18 18 18 19 19 19 19 19
23 20 10 8 12 14 12 8 8 10 11 12 12 13 14 16 16 16 16 16 17 17 17 18 19 19 19 19 20 20 20 21 21
24 20 10 9 13 15 11 9 10 11 10 10 11 13 14 15 18 18 19 20 20 20 21 22 22 22 23 23 23 24 24 24 25
25 20 11 10 14 16 10 10 11 10 11 13 16 18 20 20 21 23 24 25 26 26 26 26 27 28 28 28 30 31 34 35 34
26 20 12 12 15 16 11 11 11 12 15 16 18 20 22 24 26 28 31 33 34 35 34 33 33 34 35 36 37 37 38 38 38
Wind_Speed
12 12 12 11 11 11 11 11 10 11 10 10 10 9 9 8 7 7 7 8 8 9 9 9 10 9 9 9 8 9 10 11 13
11 11 12 12 12 12 11 11 11 11 11 11 11 11 10 9 8 7 7 7 7 8 9 9 10 10 9 9 9 10 11 12 14
11 11 11 11 11 11 10 10 10 10 11 11 11 11 11 10 9 8 8 8 8 8 8 9 9 10 10 9 10 11 10 12 13
10 10 10 11 11 10 10 9 10 11 11 11 11 11 11 10 9 8 8 8 8 8 8 8 8 9 9 10 10 11 11 10 12
10 9 10 11 11 11 9 9 11 12 12 11 11 11 11 11 10 9 9 8 8 7 7 7 7 8 8 9 9 9 10 10 10
10 9 9 10 10 10 9 10 11 12 12 12 11 11 11 10 10 9 8 7 7 6 6 6 6 6 6 6 7 7 8 9 9
10 9 9 9 10 10 10 10 10 11 11 12 11 11 11 10 10 9 9 8 7 6 5 5 5 6 6 6 7 7 7 8 9
10 9 8 8 10 10 9 9 10 10 11 11 10 10 10 10 10 10 9 8 7 6 5 5 6 6 7 7 7 7 7 7 8
10 10 8 8 9 10 10 9 9 10 10 10 10 10 10 10 10 11 10 9 8 7 6 5 6 6 7 7 7 7 7 7 8
10 10 8 7 8 9 9 9 8 9 9 9 10 10 10 10 10 10 10 10 9 8 7 6 6 6 7 8 8 8 8 8 9
9 10 7 6 7 8 8 8 8 8 8 8 8 9 10 10 10 10 10 9 9 9 8 7 6 6 7 9 8 9 9 9 9
9 10 8 6 6 7 7 8 8 8 7 8 8 9 9 10 10 10 10 10 10 10 9 9 8 7 7 8 8 7 8 9 10
9 10 8 6 6 6 7 7 8 8 7 7 8 8 9 9 10 10 10 10 10 10 10 10 9 10 9 10 10 8 8 8 9
9 10 10 7 6 6 6 6 8 8 6 6 7 8 9 9 10 10 10 11 11 11 11 11 11 10 10 11 11 11 10 9 10
11 10 11 9 7 6 7 6 7 8 8 7 7 8 9 10 10 11 12 12 13 12 12 12 12 12 12 12 11 11 11 10 10
12 11 12 10 8 7 7 6 6 8 9 9 9 9 10 11 11 13 14 14 14 15 14 13 13 13 13 13 12 12 12 11 11
13 13 13 12 10 8 8 7 6 7 9 10 11 12 12 13 14 15 15 16 16 16 16 16 15 14 14 14 14 14 14 14 14
15 15 14 14 11 10 10 8 7 7 9 12 13 14 15 17 17 17 18 18 18 18 18 17 17 17 16 16 17 17 17 18 18
17 17 16 15 13 12 11 10 8 8 11 14 15 16 18 18 19 19 20 20 20 20 20 20 20 20 21 21 21 21 22 22 22
20 18 18 17 15 14 13 11 10 11 13 16 18 19 20 21 21 21 21 23 22 22 23 23 24 25 26 26 26 26 26 26 26
Wind_Direction
30 30 28 27 28 28 26 24 22 19 15 11 3 353 346 336 326 316 313 309 302 289 285 283 281 280 280 275 270 263 257 249 257
33 31 28 25 23 22 21 20 22 19 18 18 13 8 357 346 336 327 318 311 300 296 294 290 284 282 278 276 271 263 260 257 253
31 29 27 24 21 18 18 19 19 17 18 20 19 15 10 1 349 337 323 314 306 306 299 292 288 282 278 273 270 270 266 264 262
28 23 22 22 20 17 16 17 15 14 15 17 19 17 17 12 4 354 339 326 320 314 306 300 292 287 280 273 269 270 269 267 271
19 19 17 17 17 14 13 12 12 11 12 15 17 20 19 17 12 9 353 346 336 329 321 312 306 291 286 282 277 273 273 269 262
13 11 16 12 14 12 7 8 10 11 9 12 15 18 21 19 16 11 1 359 344 337 334 328 320 311 299 288 281 279 276 273 266
5 7 9 10 10 10 4 4 8 10 10 13 13 16 21 17 21 18 13 7 356 352 347 337 323 314 309 303 294 288 279 271 266
359 3 3 7 7 7 2 0 5 9 11 12 14 17 22 17 18 17 16 13 3 359 2 347 332 322 318 316 307 300 295 286 276
355 355 360 2 5 5 359 354 1 6 10 10 14 16 20 18 16 13 9 10 10 6 2 356 342 336 336 313 311 312 301 291 281
354 347 351 355 2 3 357 348 354 2 9 9 11 14 16 17 17 11 8 6 6 8 9 1 351 337 322 316 324 319 315 304 294
348 338 337 345 352 357 353 344 347 354 5 3 4 9 9 10 12 7 5 4 4 4 3 358 354 341 330 323 329 322 316 307 301
334 329 322 330 337 347 349 342 339 344 357 357 358 2 1 2 2 0 357 357 357 356 353 350 345 337 330 321 328 331 317 311 309
320 319 308 307 320 335 342 336 331 332 348 350 351 351 349 349 349 349 346 346 347 346 344 342 337 330 325 321 322 323 322 319 310
304 309 296 289 302 319 326 329 326 323 332 341 342 344 338 336 336 334 335 334 335 335 334 332 329 324 320 317 317 318 316 312 306
292 298 286 277 287 303 309 316 321 319 324 332 335 334 329 327 327 326 326 325 325 326 324 322 320 318 316 313 311 310 310 310 309
280 285 275 269 276 287 293 300 312 314 317 323 326 327 325 323 321 320 319 318 317 316 315 312 309 308 308 307 306 306 306 305 304
273 277 266 262 266 273 278 282 292 305 313 318 323 324 322 320 318 316 313 312 311 309 306 304 302 299 298 297 297 297 298 300 300
268 271 261 257 259 263 268 274 289 303 310 315 318 319 316 315 314 311 309 308 306 304 301 298 294 293 291 290 291 293 294 295 296
264 265 256 253 255 258 261 267 275 290 303 309 312 314 314 312 309 307 307 305 303 300 297 294 292 290 289 289 290 292 293 293 293
260 259 254 251 252 254 257 260 267 285 298 305 308 310 309 307 305 303 304 303 302 299 297 294 292 291 291 291 291 291 291 291 292